This is the latest recevied weather packets stored in our database for station/object DH0GMA. If no packets are shown the sender has not sent any weather packets the latest 10 day(s).
| Time | Temp. | Humidity | Pressure | Rain* | Wind** | Luminosity | Snow |
|---|---|---|---|---|---|---|---|
| 1777202865 | 18.33° C | 35% | 1021.6 hPa | 0 mm | - | - | - |
| 1777202266 | 17.78° C | 39% | 1021.8 hPa | 0 mm | - | - | - |
| 1777201666 | 17.78° C | 42% | 1021.8 hPa | 0 mm | - | - | - |
| 1777201066 | 17.78° C | 39% | 1022 hPa | 0 mm | - | - | - |
| 1777200465 | 17.78° C | 40% | 1021.9 hPa | 0 mm | - | - | - |
| 1777199865 | 17.22° C | 45% | 1022.1 hPa | 0 mm | - | - | - |
| 1777199265 | 16.67° C | 41% | 1021.9 hPa | 0 mm | - | - | - |
| 1777198665 | 17.22° C | 40% | 1022.1 hPa | 0 mm | - | - | - |
| 1777198065 | 16.67° C | 41% | 1022.2 hPa | 0 mm | - | - | - |
| 1777197465 | 16.67° C | 41% | 1022.2 hPa | 0 mm | - | - | - |
| 1777196865 | 16.67° C | 43% | 1022.2 hPa | 0 mm | - | - | - |
| 1777196265 | 16.11° C | 45% | 1022.3 hPa | 0 mm | - | - | - |
| 1777195665 | 15.56° C | 43% | 1022.4 hPa | 0 mm | - | - | - |
| 1777195065 | 16.11° C | 44% | 1022.5 hPa | 0 mm | - | - | - |
| 1777194467 | 15.56° C | 46% | 1022.5 hPa | 0 mm | - | - | - |
| 1777193866 | 15.56° C | 48% | 1022.5 hPa | 0 mm | - | - | - |
| 1777193266 | 15.56° C | 46% | 1022.5 hPa | 0 mm | - | - | - |
| 1777192665 | 14.44° C | 49% | 1022.6 hPa | 0 mm | - | - | - |
| 1777192065 | 14.44° C | 47% | 1022.6 hPa | 0 mm | - | - | - |
| 1777191465 | 14.44° C | 47% | 1022.4 hPa | 0 mm | - | - | - |
| 1777190865 | 14.44° C | 47% | 1022.5 hPa | 0 mm | - | - | - |
| 1777190265 | 13.89° C | 52% | 1022.6 hPa | 0 mm | - | - | - |
| 1777189665 | 13.33° C | 53% | 1022.5 hPa | 0 mm | - | - | - |
| 1777189065 | 12.78° C | 53% | 1022.6 hPa | 0 mm | - | - | - |
| 1777188465 | 12.78° C | 56% | 1022.6 hPa | 0 mm | - | - | - |
* Rain latest hour (hover to see other rain measurements)
** Current wind speed in m/s (hover to see current wind gust speed)